Regional Weather Roundup
Issued by NWS Raleigh/Durham, NC

Home | Current Version | Previous Version | Text Only | Print | Product List | Glossary On
Versions: 1 2 3 4 5 6 7 8 9 10 11 12 13 14 15 16 17 18 19 20 21 22 23 24 25 26 27
000
ASUS42 KRAH 271610
RWRRAH
NORTH CAROLINA WEATHER ROUNDUP
NATIONAL WEATHER SERVICE RALEIGH NC
1200 PM EDT FRI MAY 27 2016

NOTE: "FAIR" INDICATES FEW OR NO CLOUDS BELOW 12,000 FEET WITH NO
SIGNIFICANT WEATHER AND/OR OBSTRUCTIONS TO VISIBILITY.

NCZ001-053-055-056-065-067-271700-
WESTERN NORTH CAROLINA

CITY           SKY/WX    TMP DP  RH WIND       PRES   REMARKS
ASHEVILLE      SUNNY     77  61  57 S7        30.18F
JEFFERSON      MOSUNNY   74  60  61 CALM      30.22F
MORGANTON      SUNNY     79  65  62 CALM      30.20S
HICKORY        SUNNY     78  66  66 VRB5      30.15F
RUTHERFORDTON  SUNNY     78  67  67 S9        30.16F
MOUNT AIRY     SUNNY     79  70  73 S7        30.17F
BOONE          SUNNY     76  58  53 E5        30.23S
$$

NCZ021-022-025-041-071-084-088-271700-
CENTRAL NORTH CAROLINA

CITY           SKY/WX    TMP DP  RH WIND       PRES   REMARKS
CHARLOTTE      MOSUNNY   80  59  48 SW8       30.17S
GREENSBORO     MOSUNNY   81  63  54 SW8       30.14F
WINSTON-SALEM  SUNNY     80  63  55 VRB6      30.15F
RALEIGH-DURHAM MOSUNNY   82  62  50 SW8G16    30.16S
FORT BRAGG     SUNNY     82  63  52 VRB7      30.15S
FAYETTEVILLE   MOSUNNY   82  62  50 W5        30.15S
BURLINGTON     SUNNY     81  59  47 S7        30.15S
LAURINBURG     PTSUNNY   80  62  54 W5        30.17S
$$

NCZ011-015-027-028-043-044-047-080-103-271700-
NORTHEASTERN NORTH CAROLINA

CITY           SKY/WX    TMP DP  RH WIND       PRES   REMARKS
ROCKY MT-WILSO SUNNY     83  64  52 VRB5      30.16S
GREENVILLE     MOSUNNY   82  63  51 SW6       30.18R
WASHINGTON     SUNNY     82  62  51 SE7       30.17S
ELIZABETH CITY PTSUNNY   80  61  52 SW9       30.18R
MANTEO         NOT AVBL
CAPE HATTERAS  SUNNY     82  60  47 SE5       30.19S
$$

NCZ078-087-090-091-093-098-101-271700-
SOUTHEASTERN NORTH CAROLINA

CITY           SKY/WX    TMP DP  RH WIND       PRES   REMARKS
LUMBERTON      SUNNY     85  62  46 VRB5      30.15S
GOLDSBORO      SUNNY     83  62  48 VRB5      30.15S
KINSTON        SUNNY     82  61  47 SE6       30.18R
KENANSVILLE    SUNNY     80  58  47 CALM      30.18S
NEW BERN       SUNNY     81  61  50 E8        30.18F
CHERRY POINT   SUNNY     83  60  45 E9        30.18S
BEAUFORT       SUNNY     80  55  42 SE10      30.18S
JACKSONVILLE   SUNNY     80  59  48 SE8       30.17S
WILMINGTON     SUNNY     79  59  50 VRB7      30.17S
$$





USA.gov is the U.S. government's official web portal to all federal, state and local government web resources and services.